Kuchera_Ratio
0.0 0.0 0.0 0.0 0.0 0.0 0.0 0.0 0.0 0.0 0.0 0.0 0.0 0.0 0.0 0.0 0.0 0.0 0.0 0.1 1.7 3.1
0.0 0.0 0.0 0.0 0.0 0.0 0.0 0.0 0.0 0.0 0.0 0.0 0.0 0.0 0.0 0.0 0.0 0.0 0.0 0.7 2.3 4.2
0.0 0.0 0.0 0.0 0.0 0.0 0.0 0.0 0.0 0.0 0.0 0.0 0.0 0.0 0.0 0.0 0.0 0.4 2.3 3.5 5.1 6.7
0.0 0.0 0.0 0.0 0.0 0.0 0.0 0.0 0.0 0.0 0.0 0.0 0.0 0.0 0.0 0.0 0.5 2.2 3.9 6.3 7.4 7.6
0.0 0.0 0.0 0.0 0.0 0.0 0.0 0.0 0.0 0.0 0.0 0.0 0.0 0.0 0.0 0.0 1.6 4.2 6.5 7.1 8.2 9.0
0.0 0.0 0.0 0.0 0.0 0.0 0.0 0.0 0.0 0.0 0.0 0.0 0.0 0.2 0.0 1.1 4.3 6.7 7.4 8.6 9.8 10.5
0.0 0.0 0.0 0.0 0.0 0.4 0.6 0.7 0.0 0.0 0.4 0.0 0.0 1.6 2.5 5.2 6.8 7.7 8.7 9.3 10.3 11.1
0.0 0.0 0.0 0.0 0.9 1.5 2.1 0.0 1.2 1.6 0.9 0.3 2.1 4.0 5.7 7.2 8.2 10.0 11.1 10.9 10.1 9.9
0.0 0.0 0.0 0.8 2.1 3.3 0.1 2.3 2.2 2.4 1.7 3.9 4.9 3.5 3.1 5.1 10.1 10.5 11.7 11.5 11.9 11.9
0.0 0.0 0.0 2.5 3.2 3.3 3.1 3.0 3.7 6.1 7.2 7.9 9.3 4.1 4.9 7.9 12.1 12.8 13.2 13.1 13.5 13.1
0.0 0.4 2.2 3.4 3.4 3.2 3.5 4.1 4.7 7.3 9.4 9.7 8.5 5.9 7.5 8.7 13.2 13.3 13.6 13.7 13.9 14.1
0.2 1.8 3.4 4.5 4.4 4.5 5.9 6.9 8.2 9.0 10.0 11.4 12.7 7.3 7.9 10.9 14.6 14.5 14.6 13.4 13.5 13.5
0.7 2.2 4.5 4.7 5.0 4.6 6.1 6.7 9.3 11.4 12.2 10.5 13.6 9.9 9.5 11.5 16.1 16.6 15.8 14.7 13.8 13.4
1.5 3.2 4.2 5.1 5.4 6.4 7.7 9.9 11.6 12.3 12.9 13.3 13.0 13.9 10.7 10.7 16.1 16.4 15.5 15.6 15.5 14.5